Location: Bastrop State Park
(30.1090°N, 97.2819°W)
Time: 23:33:37
(UTC-05:00)

ISS - Visible Passes

Search period start: 25 July 2016 00:00
Search period end: 04 August 2016 00:00
Orbit: 401 x 404 km, 51.6° (Epoch: 25 July)

Date Brightness Start Highest point End Pass type
(mag) Time Alt. Az. Time Alt. Az. Time Alt. Az.
25 Jul -2.5 21:17:57 10° SSW 21:20:50 29° SE 21:23:43 10° ENE visible
25 Jul -0.4 22:54:58 10° W 22:57:16 18° NW 22:59:03 12° N visible
26 Jul -1.0 05:26:13 10° NNW 05:29:04 27° NE 05:31:55 10° ESE visible
26 Jul -1.6 22:01:13 10° WSW 22:04:14 34° NW 22:07:15 10° NNE visible
27 Jul 0.0 04:34:04 10° N 04:36:00 15° NE 04:37:55 10° ENE visible
27 Jul -2.9 06:09:29 10° WNW 06:12:32 39° SW 06:15:35 10° SSE visible
27 Jul -3.3 21:08:03 10° SW 21:11:17 84° NW 21:14:32 10° NE visible
28 Jul -3.3 05:16:25 10° NW 05:19:40 81° NE 05:22:55 10° SE visible
28 Jul -0.1 21:52:58 10° WNW 21:54:57 15° NW 21:56:55 10° N visible
29 Jul -1.5 06:02:45 14° WSW 06:02:53 14° SW 06:04:35 10° SSW visible
29 Jul -1.0 20:59:00 10° WSW 21:01:52 28° NW 21:04:44 10° NNE visible
31 Jul -0.1 20:51:02 10° WNW 20:52:36 13° NW 20:54:09 10° N visible
